Tracking 17150 objects as of 4-August-2015
HD Live streaming from Space Station

TANSUO 2

Track TANSUO 2 now!
10-day predictions
TANSUO 2 is classified as:


NORAD ID: 28479
Int'l Code: 2004-046A
Perigee: 691.1 km
Apogee: 707.6 km
Inclination: 98.2 °
Period: 98.6 minutes
Semi major axis: 7070 km
RCS: 1.44 m2 (large)
Launch date: November 18, 2004
Source: People's Republic of China (PRC)
Your satellite tracking list
Your tracking list is empty





NASA's NSSDC Master Catalog

Two Line Element Set (TLE):
1 28479U 04046A   15216.42414741  .00000340  00000-0  80208-4 0  9995
2 28479 098.2374 227.2303 0011678 097.0801 263.1731 14.60287837569876

Source of the keplerian elements: AFSPC

N2YO: 383